Weather History for KFOZ - May, 2013

Change the Weather History Date:

Friday, May 24, 2013

  Actual Average (KGPZ) Record (KGPZ)
Temperature  
Mean Temperature 50 °F -  
Max Temperature 69 °F 70 °F 90 °F (1980)
Min Temperature 30 °F 45 °F 23 °F (1924)
Degree Days  
Heating Degree Days 16    
Moisture  
Dew Point 31 °F    
Average Humidity 49    
Maximum Humidity 93    
Minimum Humidity 21    
Precipitation  
Precipitation 0.00 in - - ()
Sea Level Pressure  
Sea Level Pressure 30.29 in    
Wind  
Wind Speed 4 mph (South)    
Max Wind Speed 15 mph    
Max Gust Speed 20 mph    
Visibility 10 miles    
Events Rain    
Averages and records for this station are not official NWS values.
T = Trace of Precipitation, MM = Missing Value Source: NWS Daily Summary

Daily Weather History Graph

Daily Weather History Graph

Search for Another Location

Airport or City:

Trip Planner

Search our weather history database for the weather conditions in past years. The results will help you decide how hot, cold, wet, or windy it might be!

Date:

Astronomy

May. 24, 2013 Rise Set
Actual Time 5:26 AM CDT 8:57 PM CDT
Civil Twilight 4:48 AM CDT 9:35 PM CDT
Nautical Twilight 3:56 AM CDT 10:27 PM CDT
Astronomical Twilight 2:48 AM CDT 11:36 PM CDT
Moon 8:38 PM CDT (5/24) 5:03 AM CDT (5/24)
Length of Visible Light 16h 47m
Length of Day
15h 30m
Full, 100% of the Moon is Illuminated
May 24
Full
May 24
Full
May 31
Last Quarter
Jun 8
New
Jun 16
First Quarter

Hourly Weather History & Observations

Time (CDT) Temp. Windchill Dew Point Humidity Pressure Visibility Wind Dir Wind Speed Gust Speed Precip Events Conditions
12:13 AM 35.6 °F - 28.4 °F 75% 30.34 in 10.0 mi Calm Calm - N/A   Clear
12:33 AM 35.6 °F - 28.4 °F 75% 30.34 in 10.0 mi Calm Calm - N/A   Clear
12:53 AM 33.8 °F - 28.4 °F 81% 30.34 in 10.0 mi Calm Calm - N/A   Clear
1:13 AM 33.8 °F - 26.6 °F 75% 30.34 in 10.0 mi Calm Calm - N/A   Clear
1:33 AM 33.8 °F - 28.4 °F 81% 30.34 in 10.0 mi Calm Calm - N/A   Clear
1:53 AM 32.0 °F - 28.4 °F 87% 30.34 in 10.0 mi Calm Calm - N/A   Clear
2:13 AM 33.8 °F - 28.4 °F 81% 30.33 in 10.0 mi Calm Calm - N/A   Clear
2:33 AM 32.0 °F - 28.4 °F 87% 30.33 in 10.0 mi Calm Calm - N/A   Clear
2:53 AM 30.2 °F - 28.4 °F 93% 30.34 in 10.0 mi Calm Calm - N/A   Clear
3:13 AM 30.2 °F - 26.6 °F 86% 30.33 in 10.0 mi Calm Calm - N/A   Clear
3:33 AM 30.2 °F - 26.6 °F 86% 30.33 in 10.0 mi Calm Calm - N/A   Clear
3:53 AM 30.2 °F - 28.4 °F 93% 30.33 in 10.0 mi Calm Calm - N/A   Clear
4:13 AM 30.2 °F - 26.6 °F 86% 30.33 in 10.0 mi Calm Calm - N/A   Clear
4:33 AM 30.2 °F - 28.4 °F 93% 30.34 in 10.0 mi Calm Calm - N/A   Clear
4:53 AM 30.2 °F - 26.6 °F 86% 30.33 in 10.0 mi Calm Calm - N/A   Clear
5:13 AM 32.0 °F 28.7 °F 28.4 °F 87% 30.33 in 10.0 mi SE 3.5 mph - N/A   Clear
5:33 AM 32.0 °F - 28.4 °F 87% 30.33 in 10.0 mi Calm Calm - N/A   Clear
5:53 AM 32.0 °F - 28.4 °F 87% 30.34 in 10.0 mi Calm Calm - N/A   Clear
6:13 AM 33.8 °F - 30.2 °F 87% 30.34 in 10.0 mi Calm Calm - N/A   Clear
6:33 AM 37.4 °F - 30.2 °F 75% 30.35 in 10.0 mi Calm Calm - N/A   Clear
6:53 AM 39.2 °F - 33.8 °F 81% 30.35 in 10.0 mi Calm Calm - N/A   Clear
7:13 AM 44.6 °F 42.2 °F 35.6 °F 71% 30.36 in 10.0 mi SSW 4.6 mph - N/A   Clear
7:33 AM 46.4 °F 43.5 °F 35.6 °F 66% 30.36 in 10.0 mi South 5.8 mph - N/A   Clear
7:53 AM 50.0 °F - 33.8 °F 54% 30.36 in 10.0 mi SSW 8.1 mph - N/A   Clear
8:13 AM 51.8 °F - 32.0 °F 47% 30.36 in 10.0 mi SSW 13.8 mph - N/A   Clear
8:33 AM 53.6 °F - 32.0 °F 44% 30.36 in 10.0 mi SSW 15.0 mph 19.6 mph N/A   Clear
8:53 AM 53.6 °F - 32.0 °F 44% 30.36 in 10.0 mi SSW 13.8 mph - N/A   Clear
9:13 AM 55.4 °F - 32.0 °F 41% 30.36 in 10.0 mi South 12.7 mph - N/A   Clear
9:33 AM 57.2 °F - 32.0 °F 38% 30.35 in 10.0 mi South 11.5 mph - N/A   Clear
9:53 AM 57.2 °F - 30.2 °F 36% 30.35 in 10.0 mi SW 9.2 mph - N/A   Clear
10:13 AM 60.8 °F - 32.0 °F 34% 30.34 in 10.0 mi South 5.8 mph - N/A   Clear
10:33 AM 60.8 °F - 30.2 °F 31% 30.34 in 10.0 mi SSW 10.4 mph - N/A   Clear
10:53 AM 60.8 °F - 30.2 °F 31% 30.33 in 10.0 mi SW 10.4 mph - N/A   Clear
11:13 AM 62.6 °F - 30.2 °F 30% 30.33 in 10.0 mi South 6.9 mph - N/A   Clear
11:33 AM 64.4 °F - 32.0 °F 30% 30.32 in 10.0 mi South 6.9 mph - N/A   Clear
11:53 AM 64.4 °F - 32.0 °F 30% 30.32 in 10.0 mi South 10.4 mph - N/A   Clear
12:13 PM 64.4 °F - 30.2 °F 28% 30.31 in 10.0 mi South 4.6 mph - N/A   Clear
12:33 PM 66.2 °F - 28.4 °F 24% 30.31 in 10.0 mi SE 6.9 mph - N/A   Clear
12:53 PM 64.4 °F - 30.2 °F 28% 30.30 in 10.0 mi South 3.5 mph - N/A   Clear
1:13 PM 64.4 °F - 30.2 °F 28% 30.30 in 10.0 mi South 9.2 mph - N/A   Clear
1:33 PM 66.2 °F - 30.2 °F 26% 30.29 in 10.0 mi SSW 15.0 mph - N/A   Clear
1:53 PM 68.0 °F - 32.0 °F 26% 30.29 in 10.0 mi South 5.8 mph - N/A   Clear
2:13 PM 66.2 °F - 30.2 °F 26% 30.27 in 10.0 mi SSW 8.1 mph - N/A   Clear
2:33 PM 68.0 °F - 32.0 °F 26% 30.26 in 10.0 mi South 9.2 mph - N/A   Clear
2:53 PM 68.0 °F - 28.4 °F 23% 30.25 in 10.0 mi Calm Calm - N/A   Clear
3:13 PM 66.2 °F - 28.4 °F 24% 30.24 in 10.0 mi Calm Calm - N/A   Clear
3:33 PM 69.8 °F - 32.0 °F 25% 30.24 in 10.0 mi SSE 8.1 mph - N/A   Clear
3:53 PM 68.0 °F - 28.4 °F 23% 30.23 in 10.0 mi SSE 3.5 mph - N/A   Clear
4:13 PM 69.8 °F - 28.4 °F 21% 30.23 in 10.0 mi SW 11.5 mph - N/A   Clear
4:33 PM 66.2 °F - 30.2 °F 26% 30.24 in 10.0 mi SSW 11.5 mph - N/A   Clear
4:53 PM 69.8 °F - 32.0 °F 25% 30.24 in 10.0 mi South 10.4 mph - N/A   Clear
5:13 PM 69.8 °F - 32.0 °F 25% 30.24 in 10.0 mi SSW 10.4 mph 16.1 mph N/A   Clear
5:33 PM 66.2 °F - 28.4 °F 24% 30.24 in 10.0 mi South 5.8 mph 9.2 mph N/A   Clear
5:53 PM 68.0 °F - 28.4 °F 23% 30.23 in 10.0 mi SSE 6.9 mph - N/A   Clear
6:19 PM 66.2 °F - 30.2 °F 26% 30.22 in 10.0 mi South 8.1 mph - N/A   Clear
6:33 PM 66.2 °F - 30.2 °F 26% 30.22 in 10.0 mi South 6.9 mph - N/A   Clear
6:53 PM 66.2 °F - 30.2 °F 26% 30.22 in 10.0 mi South 12.7 mph - N/A   Clear
7:13 PM 64.4 °F - 30.2 °F 28% 30.22 in 10.0 mi South 6.9 mph - N/A   Clear
7:33 PM 64.4 °F - 30.2 °F 28% 30.22 in 10.0 mi SSE 4.6 mph - N/A   Clear
7:53 PM 62.6 °F - 32.0 °F 32% 30.22 in 10.0 mi South 3.5 mph - N/A   Clear
8:13 PM 60.8 °F - 33.8 °F 36% 30.23 in 10.0 mi South 3.5 mph - N/A   Clear
8:33 PM 60.8 °F - 35.6 °F 39% 30.23 in 10.0 mi SSW 4.6 mph - N/A   Clear
8:53 PM 60.8 °F - 30.2 °F 31% 30.23 in 10.0 mi SSW 6.9 mph - N/A   Clear
9:13 PM 59.0 °F - 30.2 °F 34% 30.23 in 10.0 mi SSW 5.8 mph - N/A   Clear
9:33 PM 57.2 °F - 33.8 °F 41% 30.23 in 10.0 mi Calm Calm - N/A   Clear
9:53 PM 55.4 °F - 35.6 °F 47% 30.24 in 10.0 mi SSW 3.5 mph - N/A   Clear
10:13 PM 55.4 °F - 37.4 °F 51% 30.25 in 10.0 mi SSW 3.5 mph - N/A   Clear
10:33 PM 55.4 °F - 35.6 °F 47% 30.25 in 10.0 mi SSW 6.9 mph - N/A   Clear
10:53 PM 57.2 °F - 33.8 °F 41% 30.25 in 10.0 mi South 6.9 mph - N/A   Scattered Clouds
11:13 PM 57.2 °F - 33.8 °F 41% 30.24 in 10.0 mi South 3.5 mph - N/A   Scattered Clouds
11:33 PM 57.2 °F - 33.8 °F 41% 30.24 in 10.0 mi SSW 6.9 mph - N/A   Clear
11:53 PM 57.2 °F - 35.6 °F 44% 30.25 in 10.0 mi SSW 6.9 mph - N/A Rain Light Rain